Regional Weather Roundup
Issued by NWS Sioux Falls, SD

Home | Current Version | Previous Version | Graphics & Text | Print | Product List | Glossary Off
Versions: 1 2 3 4 5 6 7 8 9 10 11 12 13 14 15 16 17 18 19 20 21 22 23 24 25 26 27 28 29 30 31 32 33 34 35 36 37 38 39 40 41 42 43 44 45 46 47 48 49 50

000
ASUS43 KFSD 181210
RWRFSD

WEATHER ROUNDUP FOR SE SOUTH DAKOTA/SW MINNESOTA/NW IOWA
NATIONAL WEATHER SERVICE SIOUX FALLS SD
700 AM CDT FRI APR 18 2014

NOTE: "FAIR" INDICATES FEW OR NO CLOUDS BELOW 12,000 FEET WITH NO
SIGNIFICANT WEATHER AND OR OBSTRUCTIONS TO VISIBILITY.


SDZ038>040-050-052>070-181300-
SOUTHEAST SOUTH DAKOTA

CITY           SKY/WX    TMP DP  RH WIND       PRES   REMARKS
CHAMBERLAIN      N/A     36  26  67 SE16      30.03S
6HR MIN TEMP:  35; 6HR MAX TEMP:  38;

HURON          CLOUDY    37  28  70 SE17G24   30.11F
6HR MIN TEMP:  32; 6HR MAX TEMP:  37;

MADISON        CLOUDY    32  32 100 SE16G24   30.19F WCI  21
MITCHELL       CLOUDY    37  29  72 SE21      30.14F
6HR MIN TEMP:  34; 6HR MAX TEMP:  37;

SIOUX FALLS    CLOUDY    34  29  82 SE14      30.22F WCI  25
6HR MIN TEMP:  32; 6HR MAX TEMP:  35;

WINNER         FAIR      45  34  65 S26G35    29.94F
YANKTON        CLOUDY    34  28  80 E10       30.20F WCI  26
$$

MNZ071-072-080-081-089-090-097-098-181300-
SOUTHWEST MINNESOTA

CITY           SKY/WX    TMP DP  RH WIND       PRES   REMARKS
FAIRMONT       CLOUDY    30  27  86 SE3       30.34R
JACKSON        PTCLDY    30  28  93 SE7       30.30R FOG     WCI  23
LUVERNE        PTCLDY    32  30  93 SE6       30.26S FOG     WCI  26
MARSHALL       MOCLDY    34  27  75 SE12      30.26F WCI  25
6HR MIN TEMP:  30; 6HR MAX TEMP:  34;

MONTEVIDEO     CLOUDY    30  27  86 SE6       30.31R WCI  24
PIPESTONE      MOCLDY    32  30  93 SE10      30.23R FOG     WCI  24
REDWOOD FALLS  CLOUDY    32  27  81 SE7       30.31R WCI  26
TRACY          PTCLDY    32  30  91 S8        30.28S FOG     WCI  25
WINDOM         PTCLDY    30  30 100 SE7       30.29S WCI  23
WORTHINGTON    PTCLDY    28  25  86 SE7       30.29R WCI  21
$$

IAZ001>003-012>014-020>022-031-032-NEZ013-014-SDZ071-181300-
NORTHWEST IOWA

CITY           SKY/WX    TMP DP  RH WIND       PRES   REMARKS
CHEROKEE       CLEAR     31  28  86 SE3       30.29R FOG
DENISON        CLEAR     34  30  86 SE6       30.28R WCI  29
ESTHERVILLE    PTCLDY    28  28 100 SE7       30.30R FOG     WCI  21
LE MARS        PTCLDY    34  30  86 SE8G15    30.26S WCI  27
ORANGE CITY    PTCLDY    32  27  80 SE6       30.26S WCI  26
SHELDON        CLOUDY    30  28  93 SE9       30.26S FOG     WCI  22
SIOUX CITY     CLEAR     29  25  85 SE8       30.26R WCI  21
6HR MIN TEMP:  28; 6HR MAX TEMP:  38;

SPENCER        MOCLDY    30  27  88 SE8       30.30R FOG     WCI  22
6HR MIN TEMP:  28; 6HR MAX TEMP:  32;

STORM LAKE     CLEAR     28  28 100 SE10      30.29R FOG     WCI  19
$$

ABBREVIATIONS USED IN REMARKS
   TC - TEMPERATURE IN CELSIUS
  WCI - WIND CHILL INDEX
   HX - HEAT INDEX
  VSB - VISIBILITY




USA.gov is the U.S. government's official web portal to all federal, state and local government web resources and services.